Location: Córrego Montividiu
(13.2496°S, 48.8603°W)
Time: 11:34:42
(UTC+00:00)

USA 59 Rocket - Pass Details

Date: 11 March 2026
Orbit: 368 x 1666 km, 63.3° (Epoch: 22 April)

Event Time Altitude Azimuth Distance (km) Brightness Sun altitude
Rises 23:12:20 0° 212° (SSW) 4,444 5.0 -25.1°
Reaches altitude 10° 23:15:43 10° 217° (SW) 3,274 4.3 -25.9°
Maximum altitude 23:23:07 49° 288° (WNW) 1,272 1.8 -27.7°
Enters shadow 23:26:30 23° 352° (N) 1,737 2.2 -28.5°
